Probability
0 0 0 0 0 0 0 0 0 0 0 0 0 0 0 0 0 0 0 0 0 0 1 2 3 2 1 0 1 2 3 2 1 0 0 0 0 0 0 0 0 0 0
0 0 0 0 0 0 0 0 0 0 0 0 0 0 0 0 0 0 0 0 0 0 1 2 3 2 1 0 1 2 2 1 0 0 0 0 0 0 0 0 0 0 0
0 0 0 0 0 0 0 0 0 0 0 0 0 0 0 0 0 0 0 0 0 0 0 1 2 1 0 0 1 2 1 0 0 0 0 0 0 0 0 0 0 0 0
0 0 0 0 0 0 0 0 0 0 0 0 0 0 0 0 0 0 0 0 0 0 0 0 0 0 0 0 1 2 1 0 0 0 0 0 0 0 0 0 0 0 1
0 0 0 0 0 0 0 0 0 0 0 0 0 0 0 0 0 0 0 0 0 0 0 0 0 0 0 0 1 1 1 0 0 0 0 0 0 0 0 0 1 1 2
0 0 0 0 0 0 0 0 0 0 0 0 0 0 0 0 0 0 0 0 0 0 0 0 0 0 0 0 0 0 0 0 0 0 0 0 0 0 0 0 0 1 2
0 0 0 0 0 0 0 0 0 0 0 0 0 0 0 0 0 0 0 0 0 0 0 0 0 0 0 0 0 0 0 0 0 0 0 0 0 0 0 0 0 0 1
0 0 0 0 0 0 0 0 0 0 0 0 0 0 0 0 0 0 0 0 0 0 0 0 0 0 0 0 0 0 0 0 0 0 0 0 0 0 0 0 0 1 1
0 0 0 0 0 0 0 0 0 0 0 0 0 0 0 0 0 0 0 0 0 0 0 0 0 0 0 0 0 0 0 0 0 0 0 0 0 0 0 0 0 1 2
0 0 0 0 0 0 0 0 0 0 0 0 0 0 0 0 0 0 0 0 0 0 0 0 0 0 0 0 0 0 0 0 0 0 0 0 0 0 0 0 0 1 2
0 0 0 0 0 0 0 0 0 0 0 0 0 0 0 0 0 0 0 0 0 0 0 0 0 0 0 0 0 0 0 0 0 0 0 0 0 0 0 0 0 1 2
0 0 0 0 0 0 0 0 0 0 0 0 0 0 0 0 0 0 0 0 0 0 0 0 0 0 0 0 0 0 0 0 0 0 0 0 0 0 0 0 0 1 2
0 0 0 0 0 0 0 0 0 0 0 0 0 0 0 0 0 0 0 0 0 0 0 0 0 0 0 0 0 0 0 0 0 0 0 0 0 0 0 0 0 1 2
0 0 0 0 0 0 0 0 0 0 0 0 0 0 0 0 0 0 0 0 0 0 0 0 0 0 0 0 0 0 0 0 0 0 0 0 0 0 0 0 0 0 1
0 0 0 0 0 0 0 0 0 0 0 0 0 0 0 0 0 0 0 0 0 0 0 0 0 0 0 0 0 0 0 0 0 0 0 0 0 0 0 0 0 0 0
0 0 0 0 0 0 0 0 0 0 0 0 0 0 0 0 0 0 0 0 0 0 0 0 0 0 0 0 0 0 0 0 0 0 0 0 0 0 0 0 0 0 0
0 0 0 0 0 0 0 0 0 0 0 0 0 0 0 0 0 0 0 0 0 0 0 0 0 0 0 0 0 0 0 0 0 0 0 0 0 0 0 0 0 0 0
0 0 0 0 0 0 0 0 0 0 0 0 0 0 0 0 0 0 0 0 0 0 0 0 0 0 0 0 0 0 0 0 0 0 0 0 0 0 0 0 0 0 0
0 0 0 0 0 0 0 0 0 0 0 0 0 0 0 0 0 0 0 0 0 0 0 0 0 0 0 0 0 0 0 0 0 0 0 0 0 0 0 0 0 0 0
0 0 0 0 0 0 0 0 0 0 0 0 0 0 0 0 0 0 0 0 0 0 0 0 0 0 0 0 0 0 0 0 0 0 0 0 0 0 0 0 0 0 0
0 0 0 0 0 0 0 0 0 0 0 0 0 0 0 0 0 0 0 0 0 0 0 0 0 0 0 0 0 0 0 0 0 0 0 0 0 0 0 0 0 0 0
0 0 0 0 0 0 0 0 0 0 0 0 0 0 0 0 0 0 0 0 0 0 0 0 0 0 0 0 0 0 0 0 0 0 0 0 0 0 0 0 0 0 0
0 0 0 0 0 0 0 0 0 0 0 0 0 0 0 0 0 0 0 0 0 0 0 0 0 0 0 0 0 0 0 0 0 0 0 0 0 0 0 0 0 0 0
0 0 0 0 0 0 0 0 0 0 0 0 0 0 0 0 0 0 0 0 0 0 0 0 0 0 0 0 0 0 0 0 0 0 0 0 0 0 0 0 0 0 0
0 0 0 0 0 0 0 0 0 0 0 0 0 0 0 0 0 0 0 0 0 0 0 0 0 0 0 0 0 0 0 0 0 0 0 0 0 0 0 0 0 0 0
0 0 0 0 0 0 0 0 0 0 0 0 0 0 0 0 0 0 0 0 0 0 0 0 0 0 0 0 0 0 0 0 0 0 0 0 0 0 0 0 0 0 0
Wind_Speed
1 1 1 1 1 1 1 1 1 0 0 1 1 1 1 1 1 1 1 3 2 3 4 4 3 3 3 3 3 2 2 2 2 2 2 3 3 2 2 2 2 2 2
1 1 1 1 1 1 1 1 1 1 0 0 1 1 1 1 1 1 1 2 3 3 4 5 4 3 3 3 3 3 3 3 3 2 2 3 4 3 3 3 3 3 3
2 1 1 1 1 0 1 0 0 0 0 0 1 1 1 1 1 1 1 1 2 3 4 5 4 4 3 4 4 3 3 3 3 3 3 3 4 4 4 4 4 4 3
2 1 1 1 1 1 1 0 0 1 0 0 1 1 1 1 1 2 1 1 1 1 2 3 3 3 4 4 4 3 3 3 3 3 3 3 4 4 4 4 5 4 4
2 1 1 1 1 1 1 0 1 0 0 1 1 1 1 1 2 1 1 1 1 1 1 1 2 3 3 4 5 4 4 3 3 3 3 3 4 4 4 5 4 4 4
2 1 1 1 1 1 1 0 0 1 0 1 1 1 1 2 1 1 1 1 1 1 1 1 1 2 3 4 5 5 5 5 4 4 4 4 4 4 4 5 5 6 5
2 2 1 1 1 1 1 1 0 0 1 1 1 2 2 2 1 1 1 1 1 1 1 1 1 1 2 5 6 6 6 6 5 5 5 5 5 5 5 5 6 6 6
2 1 2 2 2 1 1 1 1 0 0 0 0 1 1 2 2 1 1 1 1 1 1 1 1 1 1 2 4 6 6 6 6 6 7 7 6 5 5 5 6 6 6
2 1 2 1 1 1 2 2 1 1 1 1 0 1 1 2 2 2 2 1 1 1 1 1 2 2 2 1 2 4 6 7 7 7 8 8 7 7 6 6 6 6 6
1 1 1 1 2 1 2 2 1 1 1 1 1 1 1 1 1 2 2 1 2 2 2 2 2 2 2 2 2 3 4 6 7 7 8 9 8 8 7 7 6 5 5
1 2 1 1 2 2 2 2 2 1 1 1 1 1 2 2 1 1 3 3 3 3 2 3 2 2 2 2 2 3 4 5 5 6 7 8 8 8 8 7 6 6 6
1 1 1 2 2 2 2 2 2 3 2 1 1 1 1 1 2 1 2 3 3 3 3 3 3 2 2 2 3 3 4 4 4 5 5 6 6 6 6 5 6 6 6
1 1 1 2 2 2 2 2 2 2 2 2 2 2 2 2 1 1 2 2 3 3 2 2 3 2 2 2 2 3 4 4 5 5 4 4 5 5 5 6 6 6 6
1 2 2 2 2 2 2 2 2 2 2 3 3 3 2 2 2 2 2 1 3 3 2 3 2 2 2 2 3 3 3 4 5 5 4 4 5 5 5 6 6 6 7
1 1 2 2 2 2 3 3 3 3 2 3 3 3 3 2 2 2 2 2 2 3 4 3 2 2 2 1 2 2 3 5 5 5 5 5 5 5 5 6 7 6 6
1 2 2 3 3 3 3 3 3 3 3 3 3 3 3 3 2 2 2 2 2 3 4 3 2 2 2 2 3 2 3 4 5 5 6 5 5 5 6 6 7 6 6
1 2 2 3 3 3 3 3 4 4 4 4 4 4 4 3 2 2 2 2 2 2 4 4 2 2 2 2 2 2 2 2 3 5 6 6 6 6 6 6 6 6 6
2 2 2 3 4 4 4 4 4 4 5 5 5 4 5 3 4 3 2 3 3 3 3 4 3 2 2 2 2 3 3 2 3 5 6 6 7 7 6 6 5 5 5
2 2 2 3 4 4 3 4 4 4 4 5 5 5 5 4 5 4 4 4 3 3 2 3 3 2 2 2 2 3 3 2 3 3 5 5 6 6 6 6 5 5 5
2 2 2 3 3 3 3 3 4 4 4 4 4 5 5 5 5 5 4 4 3 3 3 3 3 2 2 2 1 2 3 2 3 2 3 4 5 5 6 6 5 5 5
2 2 2 2 3 3 3 3 3 4 4 4 4 4 5 5 6 5 4 4 4 3 3 3 3 2 2 1 2 1 3 3 3 1 2 3 2 2 3 5 6 5 5
2 2 2 2 3 3 5 5 4 4 4 4 4 4 4 5 5 5 6 5 5 5 5 4 3 4 4 3 2 2 2 1 3 1 1 3 2 2 3 2 5 5 5
3 2 2 2 3 4 5 5 4 3 3 4 4 3 3 3 4 4 4 5 5 6 7 5 5 6 4 3 2 2 3 3 3 2 1 3 2 3 3 3 5 5 5
3 2 2 2 3 4 5 5 4 2 2 3 3 3 4 4 4 4 3 4 4 5 5 4 5 5 4 3 4 4 3 2 2 1 1 2 2 3 3 3 5 5 6
3 3 2 2 3 3 4 4 3 1 2 2 3 3 3 4 5 5 4 4 4 4 4 5 5 4 4 3 2 1 1 1 2 2 0 1 2 2 2 2 3 5 6
3 3 2 2 3 3 4 4 3 1 2 2 2 3 4 4 5 5 4 4 5 4 3 3 3 3 3 2 2 2 2 2 2 2 1 1 1 1 2 2 2 2 3
Wind_Direction
113 106 127 132 133 117 124 131 147 103 310 322 321 314 294 281 286 193 166 164 187 213 226 230 242 244 246 250 250 252 258 259 253 235 232 227 223 231 230 229 234 231 227
119 117 119 127 113 125 133 154 169 152 199 235 295 295 274 259 273 250 203 190 197 213 224 227 235 244 249 258 262 255 258 259 253 242 247 238 233 240 239 241 235 235 223
133 141 143 138 117 90 89 73 72 83 79 215 261 266 265 254 249 264 248 199 193 212 225 228 230 241 258 268 267 262 259 261 261 255 256 256 249 246 242 245 241 234 213
137 140 137 151 138 94 73 45 28 68 353 298 294 283 260 251 249 256 262 241 199 189 219 227 228 243 262 277 270 271 266 264 267 264 266 266 262 261 252 246 243 229 213
143 142 158 151 146 118 103 31 9 41 330 317 297 285 274 251 242 251 254 258 237 193 197 227 235 252 261 275 276 273 275 274 274 272 274 275 270 264 263 253 233 216 210
154 155 149 157 143 125 132 127 341 337 283 298 304 309 284 261 243 234 247 256 255 232 202 231 228 245 246 256 266 269 272 276 272 269 271 270 272 269 262 248 233 229 219
164 165 148 162 152 157 174 161 137 358 329 359 4 321 293 261 239 246 231 230 247 250 237 252 254 248 235 241 251 262 268 270 275 271 271 266 261 262 265 255 248 237 230
159 167 166 175 168 157 166 166 137 150 291 34 55 342 309 308 307 282 279 231 243 267 254 243 249 245 243 235 253 257 266 269 271 272 271 268 262 259 258 268 254 239 232
157 168 175 162 159 162 179 186 179 183 217 272 263 148 188 242 307 279 252 248 269 266 265 262 253 253 249 245 249 255 269 273 275 274 273 270 268 258 257 258 260 245 231
180 173 175 169 173 179 186 199 198 241 176 221 289 298 269 259 224 290 293 277 272 276 270 261 247 251 254 256 256 268 277 272 275 276 276 276 271 267 262 257 252 242 240
194 179 184 189 191 193 195 191 197 223 220 211 235 285 295 307 283 237 275 290 292 271 270 270 257 249 245 248 256 274 281 272 275 280 280 278 275 272 269 259 250 248 248
206 197 211 204 203 201 205 203 202 214 231 239 247 246 239 241 258 258 265 279 279 278 267 262 249 248 249 243 252 272 271 272 275 281 286 281 276 276 280 278 259 247 244
215 224 243 231 221 218 214 208 209 221 221 228 236 250 258 260 257 259 265 280 285 284 269 263 251 238 248 242 250 260 267 273 276 278 284 283 280 277 282 280 272 254 246
230 223 224 231 237 231 224 213 215 227 225 230 240 243 255 265 266 250 239 258 286 286 273 260 262 240 264 257 261 251 264 273 273 273 274 276 278 279 282 278 274 262 248
248 236 236 229 226 233 235 218 223 224 224 231 238 240 246 255 263 261 251 238 235 266 271 262 271 274 275 274 272 258 258 272 275 278 275 273 275 277 279 278 269 266 257
240 239 251 247 237 234 236 232 230 226 225 234 236 235 242 250 259 256 252 258 247 246 266 272 266 288 290 291 289 277 265 271 269 278 281 278 274 274 272 270 266 265 265
241 240 249 253 245 240 237 236 238 227 228 235 235 232 239 240 245 249 254 254 253 245 263 285 297 315 309 299 314 303 296 272 268 273 278 276 276 277 275 270 269 271 269
248 250 253 256 252 247 241 237 241 239 233 231 230 231 238 239 242 242 242 247 247 241 246 273 292 309 301 294 305 302 301 287 278 282 279 280 281 276 270 265 271 280 281
260 257 252 253 256 253 248 244 243 246 243 237 232 230 234 231 236 237 236 239 247 249 246 254 275 286 295 314 320 314 307 302 294 288 284 289 287 281 274 267 266 273 278
269 260 259 257 257 257 255 253 250 248 245 248 247 240 236 232 234 234 235 236 241 244 244 248 264 281 292 310 310 306 309 307 301 314 298 298 296 291 287 280 272 269 274
283 270 266 270 270 260 255 264 256 246 244 246 252 253 247 248 243 236 239 238 230 231 238 241 251 265 271 288 269 282 277 294 286 307 310 298 294 282 281 281 273 266 266
301 287 274 274 272 269 270 269 265 241 240 243 250 257 259 249 245 243 248 246 238 230 231 234 244 248 253 253 256 253 258 290 282 302 297 290 289 278 280 273 282 276 273
311 294 285 286 281 282 282 275 270 249 237 240 247 251 261 260 242 241 248 253 254 255 244 236 239 244 245 233 221 234 240 241 249 260 270 276 280 269 276 277 291 286 281
308 302 297 292 292 297 299 293 285 268 257 256 251 246 251 260 250 238 232 242 250 255 253 245 244 251 250 235 217 222 233 255 285 291 188 256 279 272 286 278 288 294 290
310 305 307 307 301 302 303 297 293 279 277 279 277 269 260 258 264 250 230 233 250 264 270 260 261 270 276 264 234 187 186 212 260 258 210 241 278 295 289 280 292 297 293
310 314 318 320 309 309 315 313 314 304 286 290 290 281 276 272 269 261 238 226 239 252 248 259 267 278 278 272 241 206 196 207 233 251 216 207 269 338 307 300 303 302 295